O'Neill, NE

5:22 PM CST on February 09, 2016 (GMT -0600)
The O'Neill Municipal-Baker

Weather History for KONL - August, 2013

Change the Weather History Date:

Sunday, August 25, 2013

  Actual Average (KODX) Record (KODX)
Temperature  
Mean Temperature 84 °F 72 °F  
Max Temperature 92 °F 85 °F - ()
Min Temperature 75 °F 59 °F - ()
Degree Days  
Heating Degree Days 0 0  
Month to date heating degree days 0  
Since 1 June heating degree days 42  
Since 1 July heating degree days 5  
Cooling Degree Days 18 7  
Month to date cooling degree days 220  
Year to date cooling degree days 720  
Since 1 June cooling degree days 679  
Growing Degree Days 34 (Base 50)    
Moisture  
Dew Point 67 °F    
Average Humidity 59    
Maximum Humidity 74    
Minimum Humidity 40    
Precipitation  
Precipitation 0.00 in 0.10 in - ()
Month to date precipitation 2.64  
Year to date precipitation 18.39  
Sea Level Pressure  
Sea Level Pressure 30.00 in    
Wind  
Wind Speed 14 mph (South)    
Max Wind Speed 20 mph    
Max Gust Speed 26 mph    
Visibility 10 miles    
Events      
T = Trace of Precipitation, MM = Missing Value Source: NWS Daily Summary

Daily Weather History Graph

Daily Weather History Graph

Search for Another Location

Airport or City:

Trip Planner

Search our weather history database for the weather conditions in past years. The results will help you decide how hot, cold, wet, or windy it might be!

Date:

Astronomy

Aug. 25, 2013 Rise Set
Actual Time 6:52 AM CDT 8:20 PM CDT
Civil Twilight 6:23 AM CDT 8:49 PM CDT
Nautical Twilight 5:47 AM CDT 9:24 PM CDT
Astronomical Twilight 5:09 AM CDT 10:02 PM CDT
Moon 10:44 PM CDT (8/25) 12:03 PM CDT (8/25)
Length of Visible Light 14h 26m
Length of Day
13h 27m
Waning Gibbous, 75% of the Moon is Illuminated
Aug 25
Waning Gibbous
Aug 28
Last Quarter
Sep 5
New
Sep 12
First Quarter
Sep 19
Full

Hourly Weather History & Observations

Time (CDT) Temp. Heat Index Dew Point Humidity Pressure Visibility Wind Dir Wind Speed Gust Speed Precip Events Conditions
12:15 AM 80.6 °F 82.7 °F 66.2 °F 61% 29.98 in 10.0 mi South 13.8 mph 19.6 mph N/A   Clear
12:35 AM 80.4 °F 82.6 °F 66.2 °F 62% 29.98 in 10.0 mi South 17.3 mph 24.2 mph N/A   Clear
12:55 AM 80.1 °F 82.1 °F 66.2 °F 62% 29.98 in 10.0 mi South 16.1 mph 21.9 mph N/A   Clear
1:15 AM 79.7 °F - 66.2 °F 63% 29.98 in 10.0 mi South 13.8 mph 23.0 mph N/A   Clear
1:35 AM 79.2 °F - 66.2 °F 64% 29.99 in 10.0 mi South 18.4 mph 25.3 mph N/A   Clear
1:55 AM 78.8 °F - 66.2 °F 65% 29.99 in 10.0 mi South 15.0 mph 23.0 mph N/A   Clear
2:15 AM 78.6 °F - 66.4 °F 66% 29.99 in 10.0 mi South 16.1 mph 20.7 mph N/A   Clear
2:35 AM 78.4 °F - 66.6 °F 67% 29.99 in 10.0 mi South 15.0 mph 20.7 mph N/A   Clear
2:55 AM 78.1 °F - 66.7 °F 68% 30.00 in 10.0 mi South 15.0 mph 23.0 mph N/A   Clear
3:15 AM 77.9 °F - 66.7 °F 68% 30.00 in 10.0 mi South 16.1 mph 21.9 mph N/A   Clear
3:35 AM 77.5 °F - 67.1 °F 70% 30.00 in 10.0 mi South 15.0 mph 20.7 mph N/A   Clear
3:55 AM 77.2 °F - 67.1 °F 71% 30.00 in 10.0 mi South 15.0 mph 18.4 mph N/A   Clear
4:15 AM 77.0 °F - 67.1 °F 71% 30.00 in 10.0 mi South 13.8 mph 18.4 mph N/A   Clear
4:35 AM 76.8 °F - 66.7 °F 71% 30.00 in 10.0 mi South 12.7 mph 18.4 mph N/A   Scattered Clouds
4:55 AM 76.3 °F - 66.7 °F 72% 30.00 in 10.0 mi South 12.7 mph 17.3 mph N/A   Clear
5:15 AM 76.3 °F - 66.7 °F 72% 30.00 in 10.0 mi South 12.7 mph 18.4 mph N/A   Clear
5:35 AM 76.1 °F - 66.6 °F 72% 30.00 in 10.0 mi South 11.5 mph 20.7 mph N/A   Clear
5:55 AM 76.1 °F - 66.6 °F 72% 30.00 in 10.0 mi South 11.5 mph - N/A   Clear
6:15 AM 75.7 °F - 66.6 °F 73% 30.00 in 10.0 mi South 12.7 mph 17.3 mph N/A   Scattered Clouds
6:35 AM 75.2 °F - 66.4 °F 74% 30.01 in 10.0 mi South 10.4 mph 16.1 mph N/A   Clear
6:55 AM 75.6 °F - 66.6 °F 74% 30.01 in 10.0 mi South 9.2 mph - N/A   Clear
7:15 AM 75.4 °F - 66.6 °F 74% 30.02 in 10.0 mi South 8.1 mph - N/A   Clear
7:35 AM 75.4 °F - 66.6 °F 74% 30.02 in 10.0 mi SSE 8.1 mph - N/A   Clear
7:55 AM 76.1 °F - 66.6 °F 72% 30.02 in 10.0 mi SSE 9.2 mph - N/A   Clear
8:15 AM 77.0 °F - 66.7 °F 70% 30.03 in 10.0 mi South 9.2 mph - N/A   Clear
8:35 AM 77.5 °F - 67.3 °F 71% 30.02 in 10.0 mi South 13.8 mph 18.4 mph N/A   Clear
8:55 AM 78.3 °F - 67.3 °F 69% 30.02 in 10.0 mi South 11.5 mph 18.4 mph N/A   Clear
9:15 AM 79.0 °F - 66.9 °F 66% 30.02 in 10.0 mi SSW 16.1 mph 19.6 mph N/A   Clear
9:35 AM 80.2 °F 82.7 °F 67.6 °F 65% 30.01 in 10.0 mi South 13.8 mph 18.4 mph N/A   Clear
9:55 AM 81.1 °F 83.5 °F 67.1 °F 62% 30.02 in 10.0 mi South 12.7 mph 19.6 mph N/A   Clear
10:15 AM 82.0 °F 84.5 °F 66.9 °F 60% 30.02 in 10.0 mi SSW 16.1 mph 20.7 mph N/A   Clear
10:35 AM 82.9 °F 85.4 °F 66.6 °F 58% 30.02 in 10.0 mi SSW 16.1 mph 21.9 mph N/A   Clear
10:55 AM 84.2 °F 86.8 °F 66.9 °F 56% 30.03 in 10.0 mi SSW 15.0 mph 20.7 mph N/A   Clear
11:15 AM 84.9 °F 88.2 °F 68.0 °F 57% 30.02 in 10.0 mi South 11.5 mph - N/A   Clear
11:35 AM 86.0 °F 89.1 °F 67.8 °F 54% 30.02 in 10.0 mi South 16.1 mph - N/A   Clear
11:55 AM 87.1 °F 89.9 °F 67.1 °F 51% 30.02 in 10.0 mi SSW 12.7 mph 23.0 mph N/A   Clear
12:15 PM 87.8 °F 90.4 °F 66.4 °F 49% 30.01 in 10.0 mi South 16.1 mph 21.9 mph N/A   Clear
12:35 PM 88.9 °F 92.2 °F 67.5 °F 49% 30.01 in 10.0 mi SSW 13.8 mph 19.6 mph N/A   Clear
12:55 PM 89.6 °F 92.2 °F 66.0 °F 46% 30.00 in 10.0 mi South 12.7 mph 21.9 mph N/A   Clear
1:15 PM 89.8 °F 92.5 °F 66.7 °F 46% 30.00 in 10.0 mi SSW 15.0 mph - N/A   Clear
1:35 PM 90.5 °F 93.8 °F 67.3 °F 46% 30.00 in 10.0 mi South 17.3 mph 23.0 mph N/A   Clear
1:55 PM 90.7 °F 94.1 °F 67.1 °F 46% 30.00 in 10.0 mi SSW 15.0 mph 21.9 mph N/A   Clear
2:15 PM 91.6 °F 94.3 °F 66.2 °F 43% 30.00 in 10.0 mi South 19.6 mph 25.3 mph N/A   Clear
2:35 PM 90.5 °F 93.3 °F 66.7 °F 45% 30.00 in 10.0 mi South 15.0 mph - N/A   Clear
2:55 PM 91.6 °F 94.8 °F 67.1 °F 44% 30.00 in 10.0 mi South 18.4 mph 21.9 mph N/A   Clear
3:15 PM 92.3 °F 94.3 °F 64.9 °F 40% 29.99 in 10.0 mi SSW 15.0 mph 26.5 mph N/A   Clear
3:35 PM 92.5 °F 94.6 °F 64.9 °F 40% 29.99 in 10.0 mi SSW 19.6 mph 25.3 mph N/A   Clear
3:55 PM 92.3 °F 96.1 °F 67.3 °F 44% 29.99 in 10.0 mi South 18.4 mph 26.5 mph N/A   Clear
4:15 PM 92.1 °F 95.7 °F 67.3 °F 44% 29.99 in 10.0 mi South 16.1 mph 24.2 mph N/A   Clear
4:35 PM 92.3 °F 95.6 °F 67.1 °F 43% 29.99 in 10.0 mi South 15.0 mph 21.9 mph N/A   Clear
4:55 PM 92.3 °F 95.1 °F 65.8 °F 42% 29.99 in 10.0 mi South 17.3 mph 21.9 mph N/A   Clear
5:15 PM 91.8 °F 94.2 °F 65.7 °F 42% 29.99 in 10.0 mi South 15.0 mph 23.0 mph N/A   Clear
5:35 PM 90.9 °F 94.0 °F 66.9 °F 45% 29.99 in 10.0 mi South 13.8 mph 19.6 mph N/A   Clear
5:55 PM 90.0 °F 93.6 °F 68.0 °F 48% 29.99 in 10.0 mi South 12.7 mph - N/A   Clear
6:15 PM 89.2 °F 92.8 °F 67.6 °F 49% 29.99 in 10.0 mi South 13.8 mph 17.3 mph N/A   Clear
6:35 PM 89.6 °F 93.4 °F 68.0 °F 49% 29.99 in 10.0 mi South 11.5 mph 16.1 mph N/A   Clear
6:55 PM 88.9 °F 92.6 °F 68.0 °F 50% 29.99 in 10.0 mi South 12.7 mph 18.4 mph N/A   Clear
7:15 PM 87.8 °F 91.8 °F 68.9 °F 53% 29.99 in 10.0 mi SSE 12.7 mph 18.4 mph N/A   Clear
7:35 PM 86.2 °F 90.0 °F 68.9 °F 56% 29.98 in 10.0 mi South 10.4 mph - N/A   Clear
7:55 PM 85.6 °F 88.8 °F 67.6 °F 55% 29.98 in 10.0 mi South 13.8 mph 17.3 mph N/A   Clear
8:15 PM 84.2 °F 87.6 °F 68.4 °F 59% 29.98 in 10.0 mi SSE 10.4 mph - N/A   Clear
8:35 PM 83.1 °F 86.8 °F 69.4 °F 63% 29.99 in 10.0 mi SSE 9.2 mph - N/A   Clear
8:55 PM 82.9 °F 87.0 °F 70.0 °F 65% 29.99 in 10.0 mi SSE 10.4 mph - N/A   Clear
9:15 PM 82.6 °F 86.4 °F 69.6 °F 65% 30.00 in 10.0 mi SSE 12.7 mph 17.3 mph N/A   Clear
9:35 PM 82.8 °F 86.2 °F 68.9 °F 63% 30.00 in 10.0 mi South 12.7 mph 18.4 mph N/A   Clear
9:55 PM 82.4 °F 85.4 °F 68.2 °F 62% 30.01 in 10.0 mi South 12.7 mph 18.4 mph N/A   Clear
10:15 PM 81.9 °F 84.6 °F 67.5 °F 62% 30.01 in 10.0 mi South 11.5 mph 17.3 mph N/A   Clear
10:35 PM 81.9 °F 84.2 °F 66.6 °F 60% 30.02 in 10.0 mi South 10.4 mph - N/A   Clear
10:55 PM 81.7 °F 83.8 °F 66.0 °F 59% 30.02 in 10.0 mi South 11.5 mph - N/A   Clear
11:15 PM 80.8 °F 82.8 °F 65.8 °F 60% 30.02 in 10.0 mi South 10.4 mph - N/A   Clear
11:35 PM 80.1 °F 82.0 °F 65.7 °F 61% 30.02 in 10.0 mi SSE 10.4 mph - N/A   Clear
11:55 PM 80.1 °F 82.0 °F 65.5 °F 61% 30.03 in 10.0 mi South 9.2 mph - N/A   Clear